User: anonymous   Login
Location: Unspecified
(0.0000°N, 0.0000°E)
Time: 23:55:18
(UTC+00:00)
Language:

Tiros 1 despin weight - Orbit

View from above orbital plane
View from above orbital plane
View from above satellite
View from above satellite

Ground track
Ground track

The orbit data is extracted from the following two-line orbital elements,

1 00115U 60002D   21025.43271328  .00000031  00000-0  30730-4 0  9996
2 00115  48.1666 286.7476 0033885 147.6358 212.6642 14.83686636224777
Epoch (UTC): 25 January 2021 10:23:06
Eccentricity: 0.0033885
inclination: 48.1666°
perigee height: 594 km
apogee height: 641 km
right ascension of ascending node: 286.7476°
argument of perigee: 147.6358°
revolutions per day: 14.83686636
mean anomaly at epoch: 212.6642°
orbit number at epoch: 22477

The dashed part of the orbit path shows where the satellite is in the earth's shadow,  

DLR